Other Public Products
Issued by NWS Charleston, SC

Home | Current Version | Previous Version | Text Only | Print | Product List | Glossary On
Versions: 1 2 3 4 5 6 7 8 9 10 11 12 13 14 15 16 17 18 19 20 21 22 23 24 25 26 27 28 29 30 31 32 33 34 35 36 37 38 39 40 41 42 43 44 45 46 47 48 49 50
000
FPUS82 KCHS 201327
OPUCHS

TEST...KCHS/KSAV Gateway Observations...TEST
National Weather Service Charleston SC
900 AM EDT SUN AUG 20 2017

NOTE: "fair" indicates few or no clouds below 12,000 feet with no
significant weather and/or obstructions to visibility.

SCZ050-WAZ558-NCZ071-TXZ119-213-PAZ071-DCZ001-FLZ074-172-MI076-
NYZ176-178-MAZ016-IL014-TNZ027-NJZ106-GAZ044-MD014-201400-

...Gateway Observations for Charleston International...

CITY           SKY/WX    TMP DP  RH WIND       PRES   REMARKS
Chas Airport   CLOUDY    81  79  94 W3        30.05S HX  90
Seattle        PTCLDY    57  49  74 N6        30.16S
Charlotte      MOSUNNY   80  72  76 N5        30.11R
Dallas DFW     PTSUNNY   82  70  66 S8        29.98R
Dallas Love    CLOUDY    83  69  62 S5        29.99R
Philladelphia  MOSUNNY   73  59  61 N8        30.09R
Wash National  SUNNY     76  65  68 N6        30.12R
Baltimore      MOSUNNY   74  63  68 NW6       30.10R
Miami          CLOUDY    79  74  84 NE8       30.00S
Detroit        SUNNY     69  62  78 S3        30.11R
Newark         MOSUNNY   73  61  65 NW13      30.04R
Laguardia      MOSUNNY   73  62  68 NW15      30.02R
J F K          MOSUNNY   75  62  64 NW13      30.03R
Boston Logan   MOSUNNY   76  61  59 W14       29.93R
Ft. Lauderdale CLOUDY    81  77  88 SE9       30.00R
Chicago O`Hare PTSUNNY   71  61  70 S3        30.03S
Chicago Midway PTSUNNY   71  61  70 S5        30.03S
Houston Bush   MOSUNNY   80  77  90 S3        30.01R
Houston Hobby  MOSUNNY   82  76  81 CALM      30.00R
Nashville      MOSUNNY   76  71  85 CALM      30.09R
Atlanta        SUNNY     81  69  67 CALM      30.10R

$$

GAZ044-118-TXZ119-213-NCZ071-DCZ001-MDZ014-506-PAZ021-071-NJZ106-
NYZ176-178-MAZ106-OHZ011-021-055-MIZ076-KYZ091-ILZ014-INZ047-
MNZ060-ONZ431-201400-

...Gateway Observations for Savannah International...

CITY           SKY/WX    TMP DP  RH WIND       PRES   REMARKS
Savannah Arpt  MOSUNNY   82  75  79 S6        30.05F
Atlanta        SUNNY     81  69  67 CALM      30.10R
Charlotte      MOSUNNY   80  72  76 N5        30.11R
Dallas DFW     PTSUNNY   82  70  66 S8        29.98R
Houston Bush   MOSUNNY   80  77  90 S3        30.01R
Wash National  SUNNY     76  65  68 N6        30.12R
Wash Dulles    MOSUNNY   73  64  73 N5        30.12R
Baltimore      MOSUNNY   74  63  68 NW6       30.10R
Philadelphia   MOSUNNY   73  59  61 N8        30.09R
Newark         MOSUNNY   73  61  65 NW13      30.04R
Laguardia      MOSUNNY   73  62  68 NW15      30.02R
J F K          MOSUNNY   75  62  64 NW13      30.03R
Boston         MOSUNNY   76  61  59 W14       29.93R
Pittsburg      FOG       62  62 100 SE3       30.14R VSB 1/16
Akron          SUNNY     69  61  75 S6        30.13R
Cleveland      SUNNY     72  63  73 S7        30.12R
Cincinnati     SUNNY     74  70  87 SW3       30.09R
Columbus       MOSUNNY   69  67  92 CALM      30.10S
Detroit        SUNNY     69  62  78 S3        30.11R
Chicago O`Hare PTSUNNY   71  61  70 S3        30.03S
Minneapolis    CLOUDY    67  62  84 SE5       29.90R
Indianapolis   MOSUNNY   72  66  81 CALM      30.06R
Toronto Canada SUNNY     70  61  73 W3        30.04R

$$




USA.gov is the U.S. government's official web portal to all federal, state and local government web resources and services.